PST,Max TemperatureF,Mean TemperatureF,Min TemperatureF,Max Dew PointF,MeanDew PointF,Min DewpointF,Max Humidity, Mean Humidity, Min Humidity, Max Sea Level PressureIn, Mean Sea Level PressureIn, Min Sea Level PressureIn, Max VisibilityMiles, Mean VisibilityMiles, Min VisibilityMiles, Max Wind SpeedMPH, Mean Wind SpeedMPH, Max Gust SpeedMPH,PrecipitationIn, CloudCover, Events, WindDirDegrees
2012-11-1,75,63,51,,,,,,,29.96,29.91,29.86,20,20,20,6,3,,0.00,4,,190
2012-11-2,66,56,46,,,,,,,30.04,30.00,29.94,20,20,20,8,2,,0.00,1,,280
2012-11-3,75,60,46,,,,,,,30.10,30.08,30.04,20,20,20,8,5,,0.00,1,,280
2012-11-4,75,60,44,,,,,,,30.25,30.20,30.16,20,20,20,10,6,,0.00,0,,333
2012-11-5,77,70,64,,,,,,,30.26,30.20,30.14,20,20,20,14,9,,0.00,0,,325
2012-11-6,69,60,50,,,,,,,30.16,30.10,30.07,20,20,20,7,4,,0.00,0,,150
2012-11-7,75,62,48,,,,,,,30.06,29.99,29.88,20,20,20,16,4,,0.00,0,,250
2012-11-8,73,66,57,,,,,,,29.84,29.80,29.72,20,20,20,24,11,32,0.00,3,,218
2012-11-9,60,52,44,,,,,,,29.80,29.78,29.72,20,20,20,37,15,45,0.00,2,,257
2012-11-10,46,44,42,,,,,,,29.98,29.93,29.86,20,20,20,20,13,24,0.00,0,,254
2012-11-11,50,38,26,,,,,,,30.37,30.32,30.20,20,20,20,8,5,,0.00,0,,5
2012-11-12,50,38,26,,,,,,,30.38,30.33,30.27,20,20,20,8,5,,0.00,0,,10
2012-11-13,51,51,44,,,,,,,30.17,30.17,30.17,20,20,20,6,5,,0.00,0,,225
2012-11-14,51,40,30,,,,,,,30.20,30.15,30.10,20,20,20,7,2,,0.00,4,,198
2012-11-15,57,49,41,,,,,,,30.16,30.12,30.08,20,20,20,6,1,,0.00,5,,330
2012-11-16,62,56,50,,,,,,,30.10,30.05,30.01,20,20,20,17,6,,0.00,5,,213
2012-11-17,59,52,46,,,,,,,30.01,29.99,29.98,20,20,20,22,11,23,0.00,1,,225
2012-11-18,60,56,53,,,,,,,30.06,30.04,29.99,20,20,20,15,9,,0.00,1,,240
2012-11-19,55,50,46,,,,,,,30.20,30.18,30.12,20,20,20,6,6,,0.00,0,,230
2012-11-20,62,48,35,,,,,,,30.18,30.09,30.04,20,20,20,15,7,,0.00,1,,200
2012-11-21,60,48,37,,,,,,,30.08,30.05,30.00,20,20,20,7,2,,0.00,2,,340
2012-11-22,64,48,39,,,,,,,30.20,30.17,30.11,20,20,20,6,6,,0.00,0,,-1
2012-11-23,64,47,35,,,,,,,30.31,30.26,30.23,20,20,20,12,8,,0.00,0,,333
2012-11-24,64,52,39,,,,,,,30.24,30.14,30.04,20,20,20,6,4,,0.00,0,,-1
2012-11-25,55,45,35,,,,,,,30.00,29.95,29.90,20,20,20,6,5,,0.00,0,,-1
2012-11-26,55,46,37,,,,,,,30.11,30.09,30.01,20,20,20,6,4,,0.00,0,,-1
2012-11-27,53,52,50,,,,,,,30.18,30.15,30.11,20,20,20,5,2,,0.00,5,,-1
2012-11-28,59,48,37,,,,,,,30.14,30.09,30.04,20,18,10,17,6,,0.00,4,,183
2012-11-29,66,58,51,,,,,,,30.10,30.07,30.04,20,20,20,25,14,18,0.00,5,,225
2012-11-30,64,58,53,,,,,,,30.04,30.00,29.97,20,20,20,25,14,29,0.00,3,,184